Weather History for KGVL - May, 2013

Change the Weather History Date:

Tuesday, May 28, 2013

  Actual Average Record
Temperature  
Mean Temperature 73 °F 71 °F  
Max Temperature 83 °F 81 °F 95 °F (1941)
Min Temperature 63 °F 62 °F 45 °F (1961)
Cooling Degree Days 8 7  
Month to date cooling degree days 90 114  
Year to date cooling degree days 121 153  
Growing Degree Days 23 (Base 50)    
Moisture  
Dew Point 58 °F    
Average Humidity 59    
Maximum Humidity 78    
Minimum Humidity 40    
Precipitation  
Precipitation 0.00 in 0.14 in 1.76 in (1976)
Month to date precipitation 8.07 3.61  
Year to date precipitation 14.92 22.49  
Sea Level Pressure  
Sea Level Pressure 30.17 in    
Wind  
Wind Speed 4 mph (SSE)    
Max Wind Speed 13 mph    
Max Gust Speed 30 mph    
Visibility 10 miles    
Events      
T = Trace of Precipitation, MM = Missing Value Source: NWS Daily Summary

Daily Weather History Graph

Daily Weather History Graph

Search for Another Location

Airport or City:

Trip Planner

Search our weather history database for the weather conditions in past years. The results will help you decide how hot, cold, wet, or windy it might be!

Date:

Astronomy

May. 28, 2013 Rise Set
Actual Time 6:25 AM EDT 8:39 PM EDT
Civil Twilight 5:57 AM EDT 9:08 PM EDT
Nautical Twilight 5:22 AM EDT 9:43 PM EDT
Astronomical Twilight 4:44 AM EDT 10:21 PM EDT
Moon No Moon Rise 10:08 AM EDT (5/28)
Length of Visible Light 15h 11m
Length of Day
14h 14m
Waning Gibbous, 83% of the Moon is Illuminated
May 28
Waning Gibbous
May 31
Last Quarter
Jun 8
New
Jun 16
First Quarter
Jun 23
Full

Hourly Weather History & Observations

Time (EDT) Temp. Heat Index Dew Point Humidity Pressure Visibility Wind Dir Wind Speed Gust Speed Precip Events Conditions
12:53 AM 70.0 °F - 57.9 °F 65% 30.16 in 10.0 mi SSE 3.5 mph - N/A   Clear
1:53 AM 69.1 °F - 57.9 °F 68% 30.15 in 10.0 mi South 5.8 mph - N/A   Clear
2:53 AM 68.0 °F - 57.9 °F 70% 30.14 in 10.0 mi South 5.8 mph - N/A   Clear
3:53 AM 66.9 °F - 57.9 °F 73% 30.14 in 10.0 mi South 5.8 mph - N/A   Clear
4:53 AM 64.0 °F - 57.0 °F 78% 30.16 in 10.0 mi Calm Calm - N/A   Clear
5:53 AM 64.0 °F - 57.0 °F 78% 30.17 in 10.0 mi South 3.5 mph - N/A   Clear
6:53 AM 64.0 °F - 57.9 °F 80% 30.20 in 10.0 mi Calm Calm - N/A   Mostly Cloudy
7:53 AM 66.9 °F - 59.0 °F 76% 30.21 in 10.0 mi Calm Calm - N/A   Mostly Cloudy
8:53 AM 68.0 °F - 59.0 °F 73% 30.21 in 10.0 mi SE 3.5 mph - N/A   Clear
9:53 AM 71.1 °F - 60.1 °F 68% 30.22 in 10.0 mi Calm Calm - N/A   Clear
10:53 AM 73.9 °F - 60.1 °F 62% 30.21 in 10.0 mi Variable 4.6 mph - N/A   Clear
11:53 AM 78.1 °F - 60.1 °F 54% 30.21 in 10.0 mi Calm Calm - N/A   Clear
12:53 PM 79.0 °F - 60.1 °F 52% 30.20 in 10.0 mi East 4.6 mph - N/A   Partly Cloudy
1:53 PM 79.0 °F - 59.0 °F 50% 30.18 in 10.0 mi South 5.8 mph - N/A   Partly Cloudy
2:53 PM 81.0 °F 81.1 °F 57.9 °F 45% 30.17 in 10.0 mi SSE 9.2 mph 19.6 mph N/A   Partly Cloudy
3:53 PM 81.0 °F 81.0 °F 57.0 °F 44% 30.16 in 10.0 mi South 8.1 mph - N/A   Clear
4:53 PM 82.0 °F 81.4 °F 55.0 °F 39% 30.15 in 10.0 mi SSE 9.2 mph - N/A   Clear
5:53 PM 81.0 °F 81.0 °F 57.0 °F 44% 30.14 in 10.0 mi SSE 5.8 mph - N/A   Partly Cloudy
6:53 PM 81.0 °F 80.8 °F 55.9 °F 42% 30.14 in 10.0 mi Variable 5.8 mph - N/A   Partly Cloudy
7:53 PM 79.0 °F - 57.0 °F 47% 30.14 in 10.0 mi South 4.6 mph - N/A   Partly Cloudy
8:53 PM 75.0 °F - 57.9 °F 55% 30.15 in 10.0 mi SSE 3.5 mph - N/A   Clear
9:53 PM 73.0 °F - 57.9 °F 59% 30.16 in 10.0 mi Calm Calm - N/A   Clear
10:53 PM 72.0 °F - 57.9 °F 61% 30.17 in 10.0 mi South 3.5 mph - N/A   Clear
11:53 PM 71.1 °F - 57.9 °F 63% 30.17 in 10.0 mi Calm Calm - N/A   Clear